Overview Statistics Trail Chart Weather Telemetry Raw packets
 

This is the latest recevied weather packets stored in our database for station/object AA7VG. If no packets are shown the sender has not sent any weather packets the latest 10 day(s).

<< 91 92 93 94 95 96 97 >>
Time Temp. Humidity Pressure Rain* Wind** Luminosity Snow
1787938950 21.67° C 50% 1018.2 hPa 0 mm - - -
1787938649 21.67° C 50% 1018.3 hPa 0 mm - - -
1787938346 21.67° C 53% 1017.9 hPa 0 mm - - -
1787938040 21.67° C 52% 1017.8 hPa 0 mm - - -
1787937736 21.67° C 52% 1017.8 hPa 0 mm - - -
1787937432 21.67° C 54% 1017.7 hPa 0 mm - - -
1787937128 21.67° C 55% 1017 hPa 0 mm - - -
1787936835 21.11° C 55% 1017.4 hPa 0 mm - - -
1787936523 21.11° C 54% 1017 hPa 0 mm - - -
1787936221 21.11° C 53% 1017.1 hPa 0 mm - - -
1787935917 21.11° C 53% 1017.4 hPa 0 mm - - -
1787935613 21.11° C 53% 1017.1 hPa 0 mm - - -
1787935309 20° C 57% 1017 hPa 0 mm - - -
1787935009 20° C 58% 1016.9 hPa 0 mm - - -
1787934704 19.44° C 62% 1016.7 hPa 0 mm - - -
1787934404 19.44° C 62% 1016.8 hPa 0 mm - - -
1787934103 18.89° C 62% 1016.9 hPa 0 mm - - -
1787933802 19.44° C 61% 1017 hPa 0 mm - - -
1787933497 18.89° C 60% 1017 hPa 0 mm - - -
1787933187 18.89° C 61% 1017.4 hPa 0 mm - - -
1787932887 18.89° C 61% 1017 hPa 0 mm - - -
1787932586 18.33° C 62% 1016.8 hPa 0 mm - - -
1787932286 18.33° C 63% 1017 hPa 0 mm - - -
1787931985 18.33° C 64% 1016.8 hPa 0 mm - - -
1787931679 17.78° C 65% 1017.2 hPa 0 mm - - -

* Rain latest hour (hover to see other rain measurements)
** Current wind speed in m/s (hover to see current wind gust speed)